Regional Weather Roundup
Issued by NWS Charleston, WV

Home | Current Version | Previous Version | Text Only | Print | Product List | Glossary Off
Versions: 1 2 3 4 5 6 7 8 9 10 11 12 13 14 15 16 17 18 19 20 21 22 23 24 25 26 27

000
ASUS41 KRLX 211010
RWRRLX
West Virginia Regional Weather Roundup
National Weather Service Charleston WV
600 AM EDT MON AUG 21 2017

Note: "fair" indicates few or no clouds below 12,000 feet with no
significant weather and/or obstructions to visibility.

WVZ003-211100-
Northern Panhandle of West Virginia

CITY           SKY/WX    TMP DP  RH WIND       PRES   REMARKS
WHEELING       CLEAR     69  63  81 S8        30.17R
$$

WVZ009-211100-
Northwest West Virginia

CITY           SKY/WX    TMP DP  RH WIND       PRES   REMARKS
PARKERSBURG    CLEAR     67  66  97 CALM      30.19R FOG
$$

WVZ006-211100-
Western West Virginia

CITY           SKY/WX    TMP DP  RH WIND       PRES   REMARKS
HUNTINGTON     CLEAR     69  66  90 CALM      30.17R FOG
$$

WVZ015-211100-
West Central West Virginia

CITY           SKY/WX    TMP DP  RH WIND       PRES   REMARKS
CHARLESTON     PTCLDY    66  65  96 CALM      30.18S
$$

WVZ022-031-211100-
North Central West Virginia

CITY           SKY/WX    TMP DP  RH WIND       PRES   REMARKS
CLARKSBURG     CLEAR     65  63  93 CALM      30.20R
MORGANTOWN     CLEAR     64  62  93 CALM      30.21R
$$

WVZ025-035-042-045-211100-
Southern West Virginia

CITY           SKY/WX    TMP DP  RH WIND       PRES   REMARKS
BECKLEY        PTCLDY    69  63  81 SE8       30.27R
LOGAN            N/A     68  66  94 CALM      30.22S
BLUEFIELD      CLOUDY    67  61  81 SE5       30.29S
LEWISBURG      MOCLDY    61  60  99 CALM      30.28R FOG
$$

WVZ047-211100-
Northern Mountains of West Virginia

CITY           SKY/WX    TMP DP  RH WIND       PRES   REMARKS
ELKINS         FOG       62  60  93 CALM      30.27R VSB 1/2
$$

WVZ052-211100-
Eastern Panhandle of West Virginia

CITY           SKY/WX    TMP DP  RH WIND       PRES   REMARKS
MARTINSBURG    CLEAR     65  63  93 CALM      30.18S
PETERSBURG     MOCLDY    67  66  99 CALM      30.22R FOG
$$




USA.gov is the U.S. government's official web portal to all federal, state and local government web resources and services.